• In Romania
  • List of Countries
  • For 7 days
  • Water Temperature
  • Satellite Maps
  • Weather Map
  • Weather Widgets
  • user-avatar
    Login

    Hourly Weather Ondjiwa

    Today, 20 November, Monday

    Time Temperature Precipitation Wind Pressure Humidity
    00:00 +28°C° 0 mm 2 mps 666 mmHg 25%
    01:00 +27°C° 0 mm 3 mps 666 mmHg 25%
    02:00 +26°C° 0 mm 2 mps 666 mmHg 26%
    03:00 +26°C° 0 mm 2 mps 666 mmHg 27%
    04:00 +25°C° 0 mm 2 mps 666 mmHg 28%
    05:00 +26°C° 0 mm 3 mps 666 mmHg 27%
    06:00 +27°C° 0 mm 3 mps 667 mmHg 25%
    07:00 +28°C° 0 mm 3 mps 667 mmHg 23%
    08:00 +30°C° 0 mm 3 mps 668 mmHg 19%
    09:00 +34°C° 0 mm 2 mps 668 mmHg 16%
    10:00 +36°C° 0 mm 2 mps 669 mmHg 13%
    11:00 +37°C° 0 mm 1 mps 668 mmHg 12%
    12:00 +39°C° 0 mm 1 mps 668 mmHg 11%
    13:00 +41°C° 0 mm 1 mps 667 mmHg 10%
    14:00 +40°C° 0 mm 1 mps 667 mmHg 10%
    15:00 +39°C° 0 mm 1 mps 666 mmHg 10%
    16:00 +39°C° 0 mm 2 mps 666 mmHg 11%
    17:00 +37°C° 0 mm 2 mps 666 mmHg 12%
    18:00 +36°C° 0 mm 2 mps 666 mmHg 13%
    19:00 +35°C° 0 mm 2 mps 666 mmHg 14%
    20:00 +34°C° 0 mm 3 mps 666 mmHg 15%
    21:00 +33°C° 0 mm 3 mps 667 mmHg 16%
    22:00 +33°C° 0 mm 4 mps 668 mmHg 17%
    23:00 +30°C° 0 mm 4 mps 667 mmHg 19%

    Tomorrow, 21 November, Tuesday

    Time Temperature Precipitation Wind Pressure Humidity
    00:00 +29°C° 0 mm 3 mps 667 mmHg 21%
    01:00 +28°C° 0 mm 3 mps 667 mmHg 24%
    02:00 +27°C° 0 mm 3 mps 666 mmHg 25%
    03:00 +26°C° 0 mm 3 mps 666 mmHg 26%
    04:00 +25°C° 0 mm 3 mps 666 mmHg 27%
    05:00 +26°C° 0 mm 3 mps 667 mmHg 26%
    06:00 +27°C° 0 mm 3 mps 667 mmHg 25%
    07:00 +27°C° 0 mm 4 mps 668 mmHg 23%
    08:00 +29°C° 0 mm 4 mps 668 mmHg 20%
    09:00 +33°C° 0 mm 4 mps 668 mmHg 17%
    10:00 +35°C° 0 mm 4 mps 669 mmHg 14%
    11:00 +36°C° 0 mm 4 mps 668 mmHg 13%
    12:00 +37°C° 0 mm 4 mps 667 mmHg 13%
    13:00 +38°C° 0 mm 4 mps 667 mmHg 12%
    14:00 +38°C° 0 mm 4 mps 666 mmHg 12%
    15:00 +38°C° 0 mm 4 mps 666 mmHg 12%
    16:00 +38°C° 0 mm 4 mps 665 mmHg 11%
    17:00 +36°C° 0 mm 3 mps 665 mmHg 12%
    18:00 +35°C° 0 mm 3 mps 665 mmHg 13%
    19:00 +34°C° 0 mm 2 mps 666 mmHg 15%
    20:00 +33°C° 0 mm 3 mps 666 mmHg 16%
    21:00 +32°C° 0 mm 4 mps 666 mmHg 18%
    22:00 +30°C° 0 mm 5 mps 667 mmHg 19%
    23:00 +30°C° 0 mm 5 mps 667 mmHg 21%

    Day after tomorrow, 22 November, Wednesday

    Time Temperature Precipitation Wind Pressure Humidity
    00:00 +29°C° 0 mm 4 mps 667 mmHg 23%
    01:00 +28°C° 0 mm 4 mps 666 mmHg 25%
    02:00 +28°C° 0 mm 4 mps 666 mmHg 26%
    03:00 +27°C° 0 mm 4 mps 666 mmHg 28%
    04:00 +26°C° 0 mm 3 mps 666 mmHg 29%
    05:00 +27°C° 0 mm 4 mps 667 mmHg 29%
    06:00 +28°C° 0 mm 4 mps 667 mmHg 29%
    07:00 +28°C° 0 mm 5 mps 668 mmHg 28%
    08:00 +30°C° 0 mm 5 mps 668 mmHg 25%
    09:00 +33°C° 0 mm 5 mps 668 mmHg 22%
    10:00 +36°C° 0 mm 5 mps 669 mmHg 19%
    11:00 +37°C° 0 mm 5 mps 668 mmHg 18%
    12:00 +39°C° 0 mm 5 mps 667 mmHg 16%
    13:00 +40°C° 0 mm 5 mps 666 mmHg 15%
    14:00 +39°C° 0 mm 5 mps 666 mmHg 15%
    15:00 +39°C° 0 mm 5 mps 665 mmHg 15%
    16:00 +39°C° 0 mm 5 mps 665 mmHg 15%
    17:00 +37°C° 0 mm 4 mps 665 mmHg 16%
    18:00 +35°C° 0 mm 3 mps 665 mmHg 18%
    19:00 +34°C° 0 mm 3 mps 665 mmHg 19%
    20:00 +33°C° 0 mm 3 mps 666 mmHg 21%
    21:00 +33°C° 0 mm 3 mps 666 mmHg 23%
    22:00 +31°C° 0 mm 3 mps 667 mmHg 25%
    23:00 +30°C° 0 mm 3 mps 666 mmHg 26%

    23 November, Thursday

    Time Temperature Precipitation Wind Pressure Humidity
    00:00 +29°C° 0 mm 3 mps 666 mmHg 28%
    01:00 +28°C° 0 mm 3 mps 666 mmHg 29%
    02:00 +27°C° 0 mm 3 mps 666 mmHg 31%
    03:00 +26°C° 0 mm 3 mps 666 mmHg 34%
    04:00 +26°C° 0 mm 3 mps 665 mmHg 36%
    05:00 +26°C° 0 mm 3 mps 666 mmHg 37%
    06:00 +27°C° 0 mm 2 mps 666 mmHg 37%
    07:00 +27°C° 0 mm 2 mps 667 mmHg 38%
    08:00 +29°C° 0 mm 2 mps 667 mmHg 35%
    09:00 +31°C° 0 mm 2 mps 667 mmHg 32%
    10:00 +34°C° 0 mm 2 mps 668 mmHg 30%
    11:00 +35°C° 0 mm 2 mps 667 mmHg 27%
    12:00 +36°C° 0 mm 2 mps 666 mmHg 25%
    13:00 +37°C° 0 mm 2 mps 666 mmHg 23%
    14:00 +37°C° 0 mm 2 mps 665 mmHg 23%
    15:00 +36°C° 0 mm 2 mps 665 mmHg 24%
    16:00 +36°C° 0 mm 2 mps 664 mmHg 24%
    17:00 +35°C° 0 mm 2 mps 664 mmHg 26%
    18:00 +34°C° 0 mm 2 mps 665 mmHg 29%
    19:00 +31°C° 0 mm 2 mps 665 mmHg 31%
    20:00 +31°C° 0.2 mm 2 mps 665 mmHg 34%
    21:00 +30°C° 0.2 mm 2 mps 665 mmHg 36%
    22:00 +29°C° 0.2 mm 2 mps 666 mmHg 38%
    23:00 +28°C° 0.6 mm 2 mps 665 mmHg 44%

    24 November, Friday

    Time Temperature Precipitation Wind Pressure Humidity
    00:00 +27°C° 0.6 mm 3 mps 665 mmHg 49%
    01:00 +26°C° 0.6 mm 3 mps 665 mmHg 54%
    02:00 +25°C° 0.5 mm 2 mps 665 mmHg 57%
    03:00 +24°C° 0.5 mm 2 mps 665 mmHg 60%
    04:00 +24°C° 0.5 mm 1 mps 665 mmHg 63%
    05:00 +24°C° 0.5 mm 1 mps 666 mmHg 61%
    06:00 +24°C° 0.5 mm 2 mps 666 mmHg 59%
    07:00 +25°C° 0.5 mm 2 mps 667 mmHg 57%
    08:00 +26°C° 0.3 mm 2 mps 667 mmHg 52%
    09:00 +28°C° 0.3 mm 2 mps 667 mmHg 46%
    10:00 +30°C° 0.3 mm 2 mps 668 mmHg 41%
    11:00 +31°C° 0 mm 2 mps 667 mmHg 39%
    12:00 +32°C° 0 mm 2 mps 666 mmHg 36%
    13:00 +32°C° 0 mm 2 mps 666 mmHg 34%
    14:00 +33°C° 0 mm 3 mps 665 mmHg 36%
    15:00 +31°C° 0 mm 3 mps 665 mmHg 38%
    16:00 +30°C° 0 mm 3 mps 664 mmHg 41%
    17:00 +29°C° 0.1 mm 3 mps 664 mmHg 44%
    18:00 +28°C° 0.1 mm 3 mps 665 mmHg 48%
    19:00 +28°C° 0.1 mm 3 mps 665 mmHg 51%
    20:00 +27°C° 0.1 mm 3 mps 665 mmHg 54%
    21:00 +26°C° 0.1 mm 3 mps 665 mmHg 57%
    22:00 +26°C° 0.1 mm 3 mps 666 mmHg 60%
    23:00 +25°C° 0.1 mm 3 mps 665 mmHg 62%

    25 November, Saturday

    Time Temperature Precipitation Wind Pressure Humidity
    00:00 +25°C° 0.1 mm 3 mps 665 mmHg 63%
    01:00 +25°C° 0.1 mm 3 mps 665 mmHg 65%
    02:00 +24°C° 0.2 mm 2 mps 665 mmHg 64%
    03:00 +24°C° 0.2 mm 2 mps 665 mmHg 62%
    04:00 +24°C° 0.2 mm 1 mps 665 mmHg 61%
    05:00 +24°C° 0.2 mm 2 mps 666 mmHg 56%
    06:00 +25°C° 0.2 mm 2 mps 666 mmHg 52%
    07:00 +25°C° 0.2 mm 2 mps 667 mmHg 47%
    08:00 +28°C° 0 mm 2 mps 667 mmHg 41%
    09:00 +30°C° 0 mm 1 mps 668 mmHg 35%
    10:00 +32°C° 0 mm 1 mps 668 mmHg 29%
    11:00 +33°C° 0 mm 1 mps 668 mmHg 28%
    12:00 +35°C° 0 mm 1 mps 667 mmHg 26%
    13:00 +36°C° 0 mm 1 mps 667 mmHg 24%
    14:00 +35°C° 0 mm 1 mps 666 mmHg 26%
    15:00 +35°C° 0 mm 2 mps 666 mmHg 27%
    16:00 +35°C° 0 mm 2 mps 665 mmHg 28%
    17:00 +34°C° 0.1 mm 3 mps 665 mmHg 32%
    18:00 +31°C° 0.1 mm 3 mps 665 mmHg 37%
    19:00 +30°C° 0.1 mm 4 mps 665 mmHg 41%
    20:00 +29°C° 0.7 mm 4 mps 666 mmHg 49%
    21:00 +27°C° 0.7 mm 4 mps 666 mmHg 56%
    22:00 +26°C° 0.7 mm 5 mps 666 mmHg 64%
    23:00 +25°C° 0.4 mm 4 mps 666 mmHg 65%
    Show more